User: anonymous   Login
Location: *
(40.4270°N, 9.4940°E)
Time: 16:20:25
(UTC+01:00)
Language:

Okean 2 - Orbit

View from above orbital plane
View from above orbital plane
View from above satellite
View from above satellite

Ground track
Ground track

The orbit data is extracted from the following two-line orbital elements,

1 20510U 90018A   14351.53469743  .00004063  00000-0  35209-3 0  9132
2 20510 082.5158 326.8354 0013226 173.1430 326.3767 14.96815979344793
Epoch (UTC): 17 December 2014 12:49:57
Eccentricity: 0.0013226
inclination: 82.5158°
perigee height: 567 km
apogee height: 586 km
right ascension of ascending node: 326.8354°
argument of perigee: 173.1430°
revolutions per day: 14.96815979
mean anomaly at epoch: 326.3767°
orbit number at epoch: 34479

The dashed part of the orbit path shows where the satellite is in the earth's shadow,  

DLR